Greensboro, NC

11:47 AM EST on January 19, 2018 (GMT -0500)
Piedmont Triad International

Weather History for KGSO - July, 2013

Change the Weather History Date:

Saturday, July 20, 2013

  Actual Average Record
Temperature  
Mean Temperature 80 °F 79 °F  
Max Temperature 87 °F 88 °F 100 °F (1977)
Min Temperature 73 °F 69 °F 56 °F (1909)
Degree Days  
Heating Degree Days 0 0  
Month to date heating degree days 0 0  
Since 1 June heating degree days 0 6  
Since 1 July heating degree days 0 0  
Cooling Degree Days 15 14  
Month to date cooling degree days 274 274  
Year to date cooling degree days 723 740  
Since 1 June cooling degree days 573 581  
Growing Degree Days 30 (Base 50)    
Moisture  
Dew Point 71 °F    
Average Humidity 79    
Maximum Humidity 93    
Minimum Humidity 65    
Precipitation  
Precipitation T in 0.15 in 2.67 in (1979)
Month to date precipitation 4.24 2.81  
Year to date precipitation 30.96 23.24  
Sea Level Pressure  
Sea Level Pressure 29.98 in    
Wind  
Wind Speed 8 mph (SW)    
Max Wind Speed 20 mph    
Max Gust Speed 26 mph    
Visibility 10 miles    
Events Rain , Thunderstorm    
T = Trace of Precipitation, MM = Missing Value Source: NWS Daily Summary

Daily Weather History Graph

Daily Weather History Graph

Search for Another Location

Airport or City:

Trip Planner

Search our weather history database for the weather conditions in past years. The results will help you decide how hot, cold, wet, or windy it might be!

Date:

Astronomy

Jul. 20, 2013 Rise Set
Actual Time 6:17 AM EDT 8:33 PM EDT
Civil Twilight 5:48 AM EDT 9:03 PM EDT
Nautical Twilight 5:12 AM EDT 9:38 PM EDT
Astronomical Twilight 4:33 AM EDT 10:17 PM EDT
Moon 6:36 PM EDT (7/20) 3:56 AM EDT (7/20)
Length of Visible Light 15h 14m
Length of Day
14h 15m
Waxing Gibbous, 93% of the Moon is Illuminated
Jul 20
Waxing Gibbous
Jul 22
Full
Jul 29
Last Quarter
Aug 6
New
Aug 14
First Quarter

Hourly Weather History & Observations

Time (EDT) Temp. Heat Index Dew Point Humidity Pressure Visibility Wind Dir Wind Speed Gust Speed Precip Events Conditions
12:54 AM 77.0 °F - 71.1 °F 82% 30.00 in 10.0 mi South 6.9 mph - N/A   Mostly Cloudy
1:54 AM 77.0 °F - 71.1 °F 82% 29.99 in 10.0 mi SSW 10.4 mph - N/A   Scattered Clouds
2:54 AM 75.9 °F - 71.1 °F 85% 29.99 in 10.0 mi SW 11.5 mph - N/A   Partly Cloudy
3:54 AM 75.0 °F - 71.1 °F 87% 29.99 in 10.0 mi SW 9.2 mph - N/A   Scattered Clouds
4:54 AM 73.9 °F - 71.1 °F 91% 29.98 in 10.0 mi SW 8.1 mph - N/A   Scattered Clouds
5:19 AM 73.4 °F - 71.6 °F 94% 30.01 in 10.0 mi SSW 9.2 mph - N/A   Mostly Cloudy
5:54 AM 73.0 °F - 71.1 °F 93% 29.98 in 10.0 mi SW 6.9 mph - N/A   Mostly Cloudy
6:54 AM 73.9 °F - 71.1 °F 91% 29.99 in 10.0 mi SSW 10.4 mph - N/A   Overcast
7:54 AM 75.0 °F - 71.1 °F 87% 30.01 in 10.0 mi SW 10.4 mph - N/A   Overcast
8:54 AM 75.0 °F - 72.0 °F 90% 30.01 in 10.0 mi WSW 8.1 mph - N/A   Overcast
9:33 AM 77.0 °F - 71.6 °F 83% 30.05 in 10.0 mi SW 8.1 mph - N/A   Overcast
9:54 AM 78.1 °F - 72.0 °F 81% 30.01 in 10.0 mi SW 9.2 mph - N/A   Overcast
10:31 AM 78.8 °F - 71.6 °F 78% 30.05 in 10.0 mi West 8.1 mph - N/A   Overcast
10:54 AM 80.1 °F 84.2 °F 73.0 °F 79% 30.01 in 10.0 mi SW 10.4 mph - N/A   Overcast
11:54 AM 82.0 °F 86.7 °F 72.0 °F 71% 30.01 in 9.0 mi WSW 11.5 mph - N/A   Mostly Cloudy
12:54 PM 84.9 °F 91.4 °F 73.0 °F 67% 29.98 in 8.0 mi SSW 9.2 mph - N/A   Mostly Cloudy
1:54 PM 86.0 °F 93.0 °F 73.0 °F 65% 29.97 in 8.0 mi SSW 11.5 mph - N/A   Mostly Cloudy
2:54 PM 86.0 °F 93.0 °F 73.0 °F 65% 29.94 in 9.0 mi SW 9.2 mph - N/A   Mostly Cloudy
3:15 PM 82.4 °F 85.4 °F 68.0 °F 62% 29.98 in 9.0 mi WNW 13.8 mph 20.7 mph N/A Thunderstorm Thunderstorm
3:31 PM 78.8 °F - 68.0 °F 69% 29.97 in 10.0 mi NNW 11.5 mph 19.6 mph N/A Thunderstorm Thunderstorm
3:54 PM 77.0 °F - 69.1 °F 76% 29.95 in 10.0 mi West 8.1 mph - 0.00 in Rain , Thunderstorm Light Thunderstorms and Rain
4:46 PM 78.8 °F - 71.6 °F 78% 29.97 in 10.0 mi Calm Calm - 0.00 in   Overcast
4:54 PM 78.1 °F - 70.0 °F 76% 29.94 in 10.0 mi Calm Calm - 0.00 in   Overcast
5:54 PM 79.0 °F - 72.0 °F 79% 29.92 in 10.0 mi SW 9.2 mph - N/A   Overcast
6:54 PM 79.0 °F - 72.0 °F 79% 29.92 in 10.0 mi SW 6.9 mph - N/A   Overcast
7:12 PM 78.8 °F - 71.6 °F 78% 29.97 in 10.0 mi WSW 6.9 mph - N/A Thunderstorm Thunderstorm
7:44 PM 78.8 °F - 71.6 °F 78% 29.98 in 10.0 mi SSW 5.8 mph - N/A   Overcast
7:54 PM 78.1 °F - 72.0 °F 81% 29.95 in 10.0 mi SSW 4.6 mph - N/A   Overcast
8:54 PM 77.0 °F - 72.0 °F 84% 29.96 in 10.0 mi WSW 5.8 mph - N/A   Overcast
9:54 PM 75.9 °F - 72.0 °F 87% 29.97 in 9.0 mi WSW 6.9 mph - N/A   Overcast
10:54 PM 73.9 °F - 71.1 °F 91% 29.97 in 9.0 mi SW 4.6 mph - N/A   Mostly Cloudy
11:54 PM 73.9 °F - 71.1 °F 91% 29.97 in 9.0 mi SW 5.8 mph - N/A   Mostly Cloudy